Vertical_Velocity
-1 -1 -1 -2 -2 -2 -2 0 -0 0 -1 -2 -1 -0 0 -0 -1 -2 -1 -0 0 -0 -1 -1 -1 -0 0 1 2 0 1 0 -1 -1 0 1 2 1 1 1 0 3 -1 -0 -0 -1 -0
-3 -1 -0 -1 -2 -3 -3 -2 -1 -0 -1 -1 -2 -2 -1 -0 -1 -1 -2 -2 -1 0 0 -0 -1 -0 -0 6 -1 -1 -0 -1 -1 1 -0 -0 1 -1 2 0 3 1 0 -2 -0 -1 -1
-1 -4 -5 -3 -2 -1 -2 -2 -2 -2 -1 -1 -2 -2 -2 -2 -1 -0 -0 -0 -1 -2 -2 -0 -0 -0 -1 -0 -1 0 1 -0 -0 -1 2 -1 -1 1 -1 0 -1 -0 2 0 -0 -3 -1
-1 -0 -1 -3 -2 0 -0 -1 -2 -1 -1 -1 -2 -2 -2 -2 -2 -1 -0 -1 -1 -1 -1 -1 -1 -1 3 -0 0 -0 -1 -0 -1 -1 -2 -2 -3 -3 0 -4 1 3 4 3 6 1 -0
0 0 -2 -1 -1 -1 -1 -0 -0 -1 -2 -3 -1 -1 -1 -1 -1 -3 -1 -0 -0 -1 -1 0 -0 -2 4 -1 -1 -2 -1 1 -1 -2 -2 -2 -2 2 2 3 3 4 -1 1 2 -1 1
3 -4 1 2 0 0 1 2 2 -1 -1 -2 -1 -0 -1 -2 -2 -1 -3 -3 -2 -1 -0 -1 -1 5 -2 3 -2 -1 -1 -1 0 -1 -1 1 2 3 3 5 -4 -1 2 -1 -1 3 3
2 2 1 -1 -2 -1 -0 -0 -1 0 1 1 -2 -1 -1 -0 -0 -2 -2 -1 -3 2 -3 -0 0 0 -0 -1 -1 -0 -1 -1 -1 1 2 -1 8 -1 -3 -1 2 2 3 1 -6 -5 3
3 1 1 1 -1 -1 -1 -1 2 -0 -2 -2 -1 -0 -1 -0 -1 1 -0 -2 -1 -1 4 -1 -1 -0 -1 -2 2 0 -2 3 1 1 0 6 -1 2 0 0 2 1 2 -6 -6 -2 10
-2 1 3 2 2 -1 1 -1 -1 0 0 -2 -2 -3 -1 -0 -1 -1 -2 -1 -1 -2 5 1 -1 0 -0 -2 1 1 -1 -1 2 1 0 5 4 -0 1 -0 4 -1 3 -2 7 -4 -2
-1 -1 0 -2 1 1 1 0 -1 1 1 -0 0 -1 -2 -1 1 -1 -1 -0 -2 -2 5 5 3 -0 3 -1 4 -1 -1 0 1 2 1 2 0 1 1 0 6 4 -1 3 1 5 -0
-3 -3 -1 3 -0 -2 -1 0 1 2 -0 1 -1 0 -1 0 -1 -2 -2 -1 -1 -1 2 7 3 -3 -1 3 1 3 -2 1 1 -0 5 -7 0 1 3 -7 4 -4 1 2 2 2 13
1 -2 -4 -4 -1 2 -1 -1 -2 -1 2 -1 -1 1 -2 -1 -2 -1 -0 -2 -3 8 -2 4 0 0 1 -1 0 1 1 -3 -4 3 1 -5 0 3 -2 -1 2 -0 2 1 2 5 8
1 -2 0 -1 -3 -1 -0 0 -2 -0 -2 2 3 1 -2 -1 1 0 -1 -0 6 3 3 3 2 -0 0 -1 0 -1 -1 -2 2 -1 1 -2 -5 -0 1 3 3 5 6 -2 4 11 -11
-2 0 -0 -3 -2 -1 -1 -1 0 -0 1 -3 2 1 0 -0 -1 -1 -1 6 5 0 0 2 0 -0 2 2 2 -0 1 2 0 -0 1 2 1 2 2 5 8 -1 8 6 2 2 -8
2 -1 -1 1 -1 -4 -1 -1 1 -0 -2 4 -1 -1 -1 -4 -4 -3 2 3 3 1 2 0 1 2 2 1 4 1 0 1 2 2 4 0 1 1 0 1 10 -9 3 5 8 -1 16
1 -1 -1 -0 0 -2 -2 -5 -0 0 -1 0 -1 1 -1 4 0 -6 6 -0 1 0 0 1 2 3 0 1 2 1 0 5 1 1 1 4 -1 -0 2 -1 -2 6 8 -5 -5 6 -2
-1 0 -2 4 -2 -3 -4 3 -0 -2 -3 3 -1 2 -1 -2 3 1 2 2 0 0 1 4 1 1 1 2 1 -0 4 6 0 -0 -1 2 6 -9 1 -0 5 -18 -6 -4 8 8 7
-1 -3 -2 -0 1 5 -5 -0 -2 1 -2 -2 4 4 -2 -1 7 -1 1 2 -1 1 -2 0 0 1 1 0 0 1 2 2 -1 2 1 3 4 0 -1 -10 1 1 3 4 7 -12 -2
-1 -2 -1 -2 1 2 -1 -2 1 -0 3 -2 2 1 -3 0 3 1 3 1 -0 0 1 -0 0 2 1 0 3 1 0 1 -0 -0 3 2 -3 -2 -11 9 13 -0 -4 2 2 4 -6
-2 -3 -3 1 -4 4 -0 -0 -1 1 2 1 1 3 -2 -2 -3 1 -0 1 1 -2 0 -1 -0 -1 1 1 0 1 0 1 -2 1 -2 2 0 3 2 4 8 -1 -2 -1 7 6 -4
1 -4 -6 -1 -1 2 1 -1 -3 2 2 4 -1 1 -0 2 2 -0 -1 -1 0 1 -0 -0 3 -0 0 1 0 -0 0 -1 0 -2 1 3 1 2 -2 -0 2 2 2 -1 3 1 8
-2 -0 -7 -5 -3 -3 -3 2 0 1 5 -3 4 -1 -2 -1 -2 -0 0 2 -1 3 0 1 2 0 0 1 1 0 1 0 0 5 1 -0 -3 2 -5 -2 2 0 -1 0 0 -1 -1
-4 -0 -4 -4 -4 -2 -1 -3 1 0 -1 -0 -1 0 -2 -1 1 2 2 2 1 -2 2 -1 -1 0 1 1 1 0 0 -1 0 2 -0 2 2 2 -8 1 -0 -0 3 0 -0 -0 4
-5 -1 -1 -5 -2 -1 -1 -1 -3 -0 4 -3 2 -1 -1 3 0 0 -1 -2 -0 0 -3 0 -1 1 3 -5 -3 3 1 1 2 -2 1 1 3 3 -2 3 6 6 0 -0 3 -1 0
-10 0 -1 -2 -0 1 -2 -1 2 -2 -0 -4 2 1 -2 1 -2 3 2 -2 1 0 -2 -2 1 -1 -4 -1 3 2 5 7 1 -1 1 2 2 -1 6 2 -8 9 1 1 3 -12 1
-2 -1 -2 -0 -0 4 -3 -2 2 4 -1 -4 -0 2 -2 -11 5 -5 -2 -1 -1 0 3 1 -3 -4 -3 2 2 1 -1 1 0 6 0 2 2 7 0 8 3 6 1 1 -1 0 1
2 -4 -0 -1 2 -3 4 1 -7 -1 -2 2 -4 -0 -4 -8 -0 6 3 -1 -3 -2 0 -1 1 2 -4 0 1 1 0 1 1 1 1 2 -0 2 -2 0 0 3 -0 -0 12 2 -1
1 -2 -3 3 -2 2 3 -3 -6 -3 -3 2 -4 -1 -2 -5 3 1 1 0 -4 -2 1 5 5 3 2 3 2 0 2 1 2 -1 1 5 4 0 1 2 -2 1 -4 2 8 -9 2
2 0 -3 2 -1 2 -1 -1 -4 -3 1 1 -8 -1 -2 -8 -1 2 -1 0 -7 -5 3 -2 2 -2 2 2 2 0 1 1 1 -1 1 5 6 6 7 8 3 0 7 -3 3 4 -4
Height
1542 1541 1541 1540 1539 1538 1537 1535 1534 1532 1530 1529 1527 1525 1524 1522 1520 1518 1516 1514 1512 1511 1509 1507 1506 1506 1505 1506 1507 1505 1505 1505 1505 1505 1505 1506 1505 1504 1501 1500 1503 1501 1497 1500 1500 1500 1500
1541 1541 1541 1541 1540 1538 1536 1535 1533 1531 1530 1528 1526 1524 1522 1520 1519 1516 1515 1513 1511 1509 1507 1505 1505 1504 1505 1507 1505 1505 1505 1505 1505 1505 1505 1505 1505 1504 1503 1502 1502 1501 1500 1499 1498 1499 1499
1539 1540 1539 1539 1539 1539 1537 1535 1533 1531 1529 1527 1525 1523 1521 1519 1517 1515 1513 1511 1509 1507 1505 1504 1504 1504 1505 1506 1504 1504 1505 1505 1505 1505 1506 1504 1504 1505 1504 1501 1502 1501 1499 1492 1492 1496 1497
1539 1539 1538 1538 1537 1537 1536 1535 1533 1531 1528 1526 1524 1522 1520 1518 1515 1513 1512 1509 1508 1506 1504 1503 1502 1503 1506 1505 1504 1505 1506 1506 1505 1505 1505 1504 1504 1504 1504 1504 1501 1498 1496 1490 1487 1493 1497
1538 1537 1537 1537 1535 1534 1534 1532 1531 1529 1528 1526 1524 1521 1519 1516 1514 1512 1509 1507 1506 1504 1503 1503 1503 1503 1506 1505 1506 1505 1506 1507 1506 1505 1505 1504 1505 1504 1503 1499 1494 1492 1490 1483 1483 1491 1491
1538 1538 1537 1536 1535 1534 1532 1530 1529 1527 1525 1523 1522 1520 1518 1515 1513 1510 1508 1506 1504 1504 1504 1504 1504 1507 1507 1507 1505 1505 1505 1506 1506 1506 1506 1505 1504 1500 1497 1494 1492 1482 1482 1480 1486 1487 1491
1537 1536 1535 1534 1534 1533 1531 1530 1528 1525 1523 1522 1519 1518 1516 1513 1511 1509 1507 1505 1508 1508 1506 1507 1508 1507 1506 1506 1505 1506 1505 1505 1505 1506 1501 1503 1500 1493 1485 1487 1486 1489 1488 1487 1481 1479 1487
1535 1535 1534 1532 1532 1531 1529 1527 1526 1525 1523 1521 1519 1517 1515 1512 1510 1508 1507 1506 1507 1509 1508 1507 1507 1507 1506 1506 1507 1507 1506 1507 1505 1500 1501 1501 1493 1487 1494 1495 1494 1491 1489 1484 1477 1478 1482
1535 1534 1533 1531 1530 1529 1528 1527 1525 1523 1522 1521 1518 1516 1514 1512 1509 1509 1508 1508 1507 1508 1508 1509 1508 1509 1509 1508 1508 1508 1508 1506 1503 1500 1497 1496 1490 1495 1494 1492 1493 1487 1485 1480 1479 1475 1478
1534 1532 1531 1530 1528 1527 1526 1525 1524 1522 1521 1519 1517 1515 1514 1511 1511 1508 1508 1508 1507 1507 1504 1508 1508 1509 1509 1508 1508 1507 1507 1510 1504 1502 1500 1495 1494 1497 1494 1491 1486 1486 1478 1477 1481 1486 1483
1531 1531 1530 1528 1526 1526 1525 1523 1522 1521 1519 1518 1516 1514 1512 1511 1510 1509 1510 1508 1508 1508 1514 1510 1509 1509 1508 1510 1510 1508 1507 1508 1504 1502 1506 1492 1494 1495 1494 1488 1488 1485 1486 1485 1484 1483 1480
1529 1528 1528 1527 1525 1523 1523 1522 1521 1520 1518 1517 1514 1513 1511 1510 1509 1508 1507 1508 1509 1510 1510 1507 1509 1510 1508 1508 1508 1508 1508 1508 1507 1505 1500 1496 1497 1499 1491 1490 1491 1488 1488 1483 1481 1484 1484
1528 1527 1526 1525 1524 1523 1522 1521 1520 1519 1518 1515 1513 1511 1510 1509 1509 1507 1507 1509 1508 1507 1509 1510 1509 1511 1510 1509 1508 1509 1508 1510 1509 1510 1495 1493 1489 1492 1497 1492 1487 1492 1489 1487 1479 1476 1471
1525 1525 1524 1523 1522 1522 1521 1520 1519 1518 1517 1515 1513 1511 1509 1508 1507 1507 1508 1510 1511 1508 1506 1512 1511 1509 1508 1512 1510 1509 1507 1506 1519 1518 1507 1499 1494 1493 1498 1495 1495 1491 1486 1486 1479 1466 1455
1523 1522 1522 1521 1520 1520 1519 1518 1517 1516 1515 1514 1513 1511 1508 1507 1507 1507 1509 1506 1503 1506 1514 1512 1508 1507 1505 1510 1513 1509 1515 1518 1526 1525 1517 1509 1492 1496 1498 1502 1500 1487 1490 1487 1484 1471 1466
1521 1520 1519 1519 1518 1517 1517 1516 1516 1514 1513 1513 1512 1510 1509 1506 1505 1507 1508 1504 1510 1516 1517 1514 1507 1509 1502 1507 1509 1506 1510 1531 1530 1531 1529 1520 1513 1497 1504 1501 1496 1498 1500 1494 1482 1478 1464
1518 1518 1517 1516 1515 1514 1514 1514 1513 1512 1512 1512 1511 1512 1507 1507 1507 1507 1504 1506 1514 1519 1519 1518 1511 1510 1511 1513 1516 1512 1517 1535 1534 1533 1532 1529 1520 1501 1502 1500 1506 1505 1502 1504 1509 1493 1476
1514 1515 1515 1515 1513 1512 1513 1512 1511 1510 1510 1510 1510 1509 1507 1506 1509 1507 1503 1513 1519 1519 1520 1521 1521 1519 1517 1519 1515 1518 1520 1531 1537 1535 1530 1531 1525 1512 1503 1503 1506 1513 1518 1519 1524 1514 1508
1511 1511 1512 1513 1512 1511 1510 1510 1509 1508 1508 1509 1509 1507 1506 1506 1501 1503 1515 1519 1522 1520 1523 1522 1525 1527 1528 1524 1523 1525 1528 1536 1537 1536 1533 1531 1522 1518 1495 1505 1508 1513 1519 1520 1519 1516 1516
1507 1508 1510 1511 1511 1510 1509 1508 1507 1506 1506 1508 1507 1505 1508 1507 1506 1503 1508 1512 1522 1526 1526 1526 1528 1528 1528 1528 1529 1526 1529 1535 1537 1537 1538 1537 1529 1527 1523 1516 1521 1521 1520 1516 1516 1517 1510
1504 1506 1507 1508 1508 1508 1507 1506 1505 1505 1504 1506 1504 1505 1506 1502 1507 1509 1510 1513 1518 1522 1527 1527 1527 1528 1529 1527 1529 1529 1532 1534 1536 1538 1537 1537 1532 1527 1527 1524 1521 1518 1515 1516 1520 1520 1524
1500 1503 1505 1506 1507 1507 1506 1505 1503 1503 1502 1503 1504 1504 1508 1512 1512 1512 1514 1517 1517 1526 1526 1528 1526 1530 1530 1528 1528 1529 1534 1534 1533 1536 1536 1536 1530 1528 1529 1519 1517 1515 1514 1518 1519 1524 1524
1499 1501 1502 1503 1504 1505 1504 1503 1502 1501 1501 1499 1499 1499 1502 1514 1513 1513 1516 1519 1522 1525 1530 1529 1530 1530 1532 1534 1536 1535 1535 1535 1535 1535 1533 1534 1529 1526 1525 1515 1515 1512 1527 1524 1524 1526 1534
1497 1500 1501 1502 1503 1503 1502 1502 1501 1501 1499 1499 1498 1497 1502 1510 1512 1515 1519 1521 1525 1527 1527 1531 1532 1531 1536 1536 1534 1533 1533 1532 1532 1533 1533 1531 1528 1525 1524 1519 1522 1522 1527 1528 1529 1526 1533
1495 1499 1501 1503 1503 1502 1500 1502 1501 1500 1497 1498 1498 1497 1499 1508 1514 1520 1522 1523 1526 1528 1531 1530 1533 1535 1537 1535 1529 1523 1523 1527 1525 1526 1529 1531 1529 1524 1523 1518 1511 1524 1531 1533 1533 1527 1534
1494 1498 1501 1503 1503 1502 1501 1502 1502 1499 1498 1499 1497 1498 1498 1504 1516 1517 1522 1523 1524 1525 1530 1532 1534 1534 1535 1532 1527 1522 1516 1516 1520 1521 1527 1527 1529 1531 1523 1524 1519 1527 1532 1532 1532 1522 1533
1492 1496 1500 1503 1502 1501 1501 1501 1502 1502 1501 1500 1499 1499 1499 1506 1518 1521 1521 1524 1526 1527 1526 1532 1533 1535 1535 1528 1523 1521 1518 1523 1523 1522 1522 1522 1523 1524 1519 1516 1517 1534 1533 1529 1529 1528 1530
1490 1494 1500 1502 1502 1503 1502 1501 1503 1504 1504 1502 1501 1501 1500 1508 1518 1522 1524 1526 1528 1529 1528 1534 1535 1534 1531 1526 1526 1522 1523 1520 1524 1519 1524 1526 1526 1520 1518 1518 1520 1535 1528 1536 1537 1533 1531
1491 1494 1499 1502 1503 1504 1503 1503 1504 1507 1505 1504 1503 1504 1504 1507 1519 1522 1525 1528 1527 1531 1533 1533 1534 1534 1534 1530 1529 1526 1524 1522 1521 1524 1529 1531 1537 1537 1535 1525 1535 1537 1536 1537 1537 1534 1529